Location: Borbetomagus
(49.6328°N, 8.3592°E)
Time: 11:03:02
(UTC+00:00)

Cosmos 1900 - Pass Details

Date: 19 May 2025
Orbit: 677 x 738 km, 66.1° (Epoch: 23 June)

Event Time Altitude Azimuth Distance (km) Brightness Sun altitude
Rises 20:31:59 0° 321° (NW) 3,154 10.0 -10.8°
Reaches altitude 10° 20:34:21 10° 321° (NW) 2,236 8.5 -11.0°
Maximum altitude 20:39:28 81° 235° (SW) 751 4.5 -11.5°
Enters shadow 20:43:32 17° 149° (SSE) 1,834 5.8 -11.9°
